Time,TemperatureF,DewpointF,PressureIn,WindDirection,WindDirectionDegrees,WindSpeedMPH,WindSpeedGustMPH,Humidity,HourlyPrecipIn,Conditions,Clouds,dailyrainin,SoftwareType,DateUTC
2013-09-27 00:01:00,47.5,42.3,0.00,North,357,0.0,0.0,82,0.00,,---,0.00,VWS V13.01,2013-09-27 04:01:00,
2013-09-27 00:03:00,47.5,42.6,0.00,North,357,0.0,0.0,83,0.00,,---,0.00,VWS V13.01,2013-09-27 04:03:00,
2013-09-27 00:04:00,47.5,42.6,0.00,North,357,0.0,0.0,83,0.00,,---,0.00,VWS V13.01,2013-09-27 04:04:00,
2013-09-27 00:09:00,47.5,42.6,0.00,North,357,0.0,0.0,83,0.00,,---,0.00,VWS V13.01,2013-09-27 04:09:00,
2013-09-27 00:14:00,47.3,42.4,0.00,North,357,0.0,0.0,83,0.00,,---,0.00,VWS V13.01,2013-09-27 04:14:00,
2013-09-27 00:19:00,47.3,42.4,0.00,North,357,0.0,0.0,83,0.00,,---,0.00,VWS V13.01,2013-09-27 04:19:00,
2013-09-27 00:24:00,47.3,42.4,0.00,North,357,0.0,0.0,83,0.00,,---,0.00,VWS V13.01,2013-09-27 04:24:00,
2013-09-27 00:29:00,47.3,42.7,0.00,North,357,0.0,0.0,84,0.00,,---,0.00,VWS V13.01,2013-09-27 04:29:00,
2013-09-27 00:34:00,47.3,42.7,0.00,North,357,0.0,0.0,84,0.00,,---,0.00,VWS V13.01,2013-09-27 04:34:00,
2013-09-27 00:39:00,47.3,42.7,0.00,North,357,0.0,0.0,84,0.00,,---,0.00,VWS V13.01,2013-09-27 04:39:00,
2013-09-27 00:44:00,47.1,42.5,0.00,North,357,0.0,0.0,84,0.00,,---,0.00,VWS V13.01,2013-09-27 04:44:00,
2013-09-27 00:49:00,46.9,42.4,0.00,North,357,0.0,0.0,84,0.00,,---,0.00,VWS V13.01,2013-09-27 04:49:00,
2013-09-27 00:54:00,46.9,42.4,0.00,North,357,0.0,0.0,84,0.00,,---,0.00,VWS V13.01,2013-09-27 04:54:00,
2013-09-27 01:00:00,46.9,42.4,0.00,North,357,0.0,0.0,84,0.00,,---,0.00,VWS V13.01,2013-09-27 05:00:00,
2013-09-27 01:05:00,46.6,41.7,0.00,North,357,0.0,0.0,83,0.00,,---,0.00,VWS V13.01,2013-09-27 05:05:00,
2013-09-27 01:10:00,46.6,42.0,0.00,North,357,0.0,0.0,84,0.00,,---,0.00,VWS V13.01,2013-09-27 05:10:00,
2013-09-27 01:15:00,46.6,42.0,0.00,North,357,0.0,0.0,84,0.00,,---,0.00,VWS V13.01,2013-09-27 05:15:00,
2013-09-27 01:20:00,46.6,42.0,0.00,North,357,0.0,0.0,84,0.00,,---,0.00,VWS V13.01,2013-09-27 05:20:00,
2013-09-27 01:25:00,46.6,42.0,0.00,North,357,0.0,0.0,84,0.00,,---,0.00,VWS V13.01,2013-09-27 05:25:00,
2013-09-27 01:30:00,46.4,41.8,0.00,North,357,0.0,0.0,84,0.00,,---,0.00,VWS V13.01,2013-09-27 05:30:00,
2013-09-27 01:35:00,46.4,41.8,0.00,North,357,0.0,0.0,84,0.00,,---,0.00,VWS V13.01,2013-09-27 05:35:00,
2013-09-27 01:40:00,46.2,42.0,0.00,North,357,0.0,0.0,85,0.00,,---,0.00,VWS V13.01,2013-09-27 05:40:00,
2013-09-27 01:45:00,46.2,42.0,0.00,North,357,0.0,0.0,85,0.00,,---,0.00,VWS V13.01,2013-09-27 05:45:00,
2013-09-27 01:50:00,46.0,41.8,0.00,North,357,0.0,0.0,85,0.00,,---,0.00,VWS V13.01,2013-09-27 05:50:00,
2013-09-27 01:55:00,46.0,41.8,0.00,North,357,0.0,0.0,85,0.00,,---,0.00,VWS V13.01,2013-09-27 05:55:00,
2013-09-27 02:00:00,45.9,41.3,0.00,North,357,0.0,0.0,84,0.00,,---,0.00,VWS V13.01,2013-09-27 06:00:00,
2013-09-27 02:05:00,45.9,41.6,0.00,North,357,0.0,0.0,85,0.00,,---,0.00,VWS V13.01,2013-09-27 06:05:00,
2013-09-27 02:11:00,45.9,41.3,0.00,North,357,0.0,0.0,84,0.00,,---,0.00,VWS V13.01,2013-09-27 06:11:00,
2013-09-27 02:16:00,45.7,41.4,0.00,North,357,0.0,0.0,85,0.00,,---,0.00,VWS V13.01,2013-09-27 06:16:00,
2013-09-27 02:21:00,45.7,41.4,0.00,North,357,0.0,0.0,85,0.00,,---,0.00,VWS V13.01,2013-09-27 06:21:00,
2013-09-27 02:26:00,45.5,41.3,0.00,North,357,0.0,0.0,85,0.00,,---,0.00,VWS V13.01,2013-09-27 06:26:00,
2013-09-27 02:31:00,45.5,41.3,0.00,North,357,0.0,0.0,85,0.00,,---,0.00,VWS V13.01,2013-09-27 06:31:00,
2013-09-27 02:36:00,45.5,41.3,0.00,North,357,0.0,0.0,85,0.00,,---,0.00,VWS V13.01,2013-09-27 06:36:00,
2013-09-27 02:41:00,45.5,41.3,0.00,North,357,0.0,0.0,85,0.00,,---,0.00,VWS V13.01,2013-09-27 06:41:00,
2013-09-27 02:46:00,45.3,41.1,0.00,North,357,0.0,0.0,85,0.00,,---,0.00,VWS V13.01,2013-09-27 06:46:00,
2013-09-27 02:51:00,45.3,41.1,0.00,North,357,0.0,0.0,85,0.00,,---,0.00,VWS V13.01,2013-09-27 06:51:00,
2013-09-27 02:56:00,45.1,40.9,0.00,North,357,0.0,0.0,85,0.00,,---,0.00,VWS V13.01,2013-09-27 06:56:00,
2013-09-27 03:01:00,45.1,40.9,0.00,North,357,0.0,0.0,85,0.00,,---,0.00,VWS V13.01,2013-09-27 07:01:00,
2013-09-27 03:06:00,45.1,40.9,0.00,North,357,0.0,0.0,85,0.00,,---,0.00,VWS V13.01,2013-09-27 07:06:00,
2013-09-27 03:11:00,45.0,40.7,0.00,North,357,0.0,0.0,85,0.00,,---,0.00,VWS V13.01,2013-09-27 07:11:00,
2013-09-27 03:16:00,44.8,40.2,0.00,North,357,0.0,0.0,84,0.00,,---,0.00,VWS V13.01,2013-09-27 07:16:00,
2013-09-27 03:21:00,44.8,40.5,0.00,North,357,0.0,0.0,85,0.00,,---,0.00,VWS V13.01,2013-09-27 07:21:00,
2013-09-27 03:26:00,44.8,40.5,0.00,North,357,0.0,0.0,85,0.00,,---,0.00,VWS V13.01,2013-09-27 07:26:00,
2013-09-27 03:31:00,44.8,40.5,0.00,North,357,0.0,0.0,85,0.00,,---,0.00,VWS V13.01,2013-09-27 07:31:00,
2013-09-27 03:36:00,44.6,40.4,0.00,North,357,0.0,0.0,85,0.00,,---,0.00,VWS V13.01,2013-09-27 07:36:00,
2013-09-27 03:41:00,44.8,40.5,0.00,North,357,0.0,0.0,85,0.00,,---,0.00,VWS V13.01,2013-09-27 07:41:00,
2013-09-27 03:47:00,44.6,40.4,0.00,North,357,0.0,0.0,85,0.00,,---,0.00,VWS V13.01,2013-09-27 07:47:00,
2013-09-27 03:49:00,44.6,40.4,0.00,North,357,0.0,0.0,85,0.00,,---,0.00,VWS V13.01,2013-09-27 07:49:00,
2013-09-27 03:55:00,44.4,40.2,0.00,North,357,0.0,0.0,85,0.00,,---,0.00,VWS V13.01,2013-09-27 07:55:00,
2013-09-27 04:00:00,44.2,40.0,0.00,North,357,0.0,0.0,85,0.00,,---,0.00,VWS V13.01,2013-09-27 08:00:00,
2013-09-27 04:05:00,44.2,40.0,0.00,North,357,0.0,0.0,85,0.00,,---,0.00,VWS V13.01,2013-09-27 08:05:00,
2013-09-27 04:10:00,44.1,39.8,0.00,North,357,0.0,0.0,85,0.00,,---,0.00,VWS V13.01,2013-09-27 08:10:00,
2013-09-27 04:15:00,43.9,39.4,0.00,North,357,0.0,0.0,84,0.00,,---,0.00,VWS V13.01,2013-09-27 08:15:00,
2013-09-27 04:20:00,43.9,39.4,0.00,North,357,0.0,0.0,84,0.00,,---,0.00,VWS V13.01,2013-09-27 08:20:00,
2013-09-27 04:25:00,43.7,39.2,0.00,North,357,0.0,0.0,84,0.00,,---,0.00,VWS V13.01,2013-09-27 08:25:00,
2013-09-27 04:30:00,43.7,39.2,0.00,North,357,0.0,0.0,84,0.00,,---,0.00,VWS V13.01,2013-09-27 08:30:00,
2013-09-27 04:35:00,43.5,39.3,0.00,North,357,0.0,0.0,85,0.00,,---,0.00,VWS V13.01,2013-09-27 08:35:00,
2013-09-27 04:40:00,43.5,39.3,0.00,North,357,0.0,0.0,85,0.00,,---,0.00,VWS V13.01,2013-09-27 08:40:00,
2013-09-27 04:45:00,43.5,39.3,0.00,North,357,0.0,0.0,85,0.00,,---,0.00,VWS V13.01,2013-09-27 08:45:00,
2013-09-27 04:50:00,43.3,39.1,0.00,North,357,0.0,0.0,85,0.00,,---,0.00,VWS V13.01,2013-09-27 08:50:00,
2013-09-27 04:55:00,43.3,39.1,0.00,North,357,0.0,0.0,85,0.00,,---,0.00,VWS V13.01,2013-09-27 08:55:00,
2013-09-27 05:00:00,43.3,39.1,0.00,North,357,0.0,0.0,85,0.00,,---,0.00,VWS V13.01,2013-09-27 09:00:00,
2013-09-27 05:05:00,43.3,39.1,0.00,North,357,0.0,0.0,85,0.00,,---,0.00,VWS V13.01,2013-09-27 09:05:00,
2013-09-27 05:10:00,43.3,39.1,0.00,North,357,0.0,0.0,85,0.00,,---,0.00,VWS V13.01,2013-09-27 09:10:00,
2013-09-27 05:15:00,43.2,39.0,0.00,North,357,0.0,0.0,85,0.00,,---,0.00,VWS V13.01,2013-09-27 09:15:00,
2013-09-27 05:20:00,43.2,39.0,0.00,North,357,0.0,0.0,85,0.00,,---,0.00,VWS V13.01,2013-09-27 09:20:00,
2013-09-27 05:25:00,43.0,38.8,0.00,North,357,0.0,0.0,85,0.00,,---,0.00,VWS V13.01,2013-09-27 09:25:00,
2013-09-27 05:30:00,43.0,38.8,0.00,North,357,0.0,0.0,85,0.00,,---,0.00,VWS V13.01,2013-09-27 09:30:00,
2013-09-27 05:35:00,43.0,38.8,0.00,North,357,0.0,0.0,85,0.00,,---,0.00,VWS V13.01,2013-09-27 09:35:00,
2013-09-27 05:40:00,43.0,38.8,0.00,North,357,0.0,0.0,85,0.00,,---,0.00,VWS V13.01,2013-09-27 09:40:00,
2013-09-27 05:46:00,42.8,38.6,0.00,North,357,0.0,0.0,85,0.00,,---,0.00,VWS V13.01,2013-09-27 09:46:00,
2013-09-27 05:51:00,42.8,38.6,0.00,North,357,0.0,0.0,85,0.00,,---,0.00,VWS V13.01,2013-09-27 09:51:00,
2013-09-27 05:56:00,42.8,38.6,0.00,North,357,0.0,0.0,85,0.00,,---,0.00,VWS V13.01,2013-09-27 09:56:00,
2013-09-27 06:01:00,42.6,38.4,0.00,North,357,0.0,0.0,85,0.00,,---,0.00,VWS V13.01,2013-09-27 10:01:00,
2013-09-27 06:06:00,42.6,38.4,0.00,North,357,0.0,0.0,85,0.00,,---,0.00,VWS V13.01,2013-09-27 10:06:00,
2013-09-27 06:11:00,42.6,38.4,0.00,North,357,0.0,0.0,85,0.00,,---,0.00,VWS V13.01,2013-09-27 10:11:00,
2013-09-27 06:16:00,42.6,38.7,0.00,North,357,0.0,0.0,86,0.00,,---,0.00,VWS V13.01,2013-09-27 10:16:00,
2013-09-27 06:21:00,42.6,38.7,0.00,North,357,0.0,0.0,86,0.00,,---,0.00,VWS V13.01,2013-09-27 10:21:00,
2013-09-27 06:26:00,42.6,38.7,0.00,North,357,0.0,0.0,86,0.00,,---,0.00,VWS V13.01,2013-09-27 10:26:00,
2013-09-27 06:31:00,42.8,38.6,0.00,North,357,0.0,0.0,85,0.00,,---,0.00,VWS V13.01,2013-09-27 10:31:00,
2013-09-27 06:36:00,42.8,38.9,0.00,North,357,0.0,0.0,86,0.00,,---,0.00,VWS V13.01,2013-09-27 10:36:00,
2013-09-27 06:41:00,43.0,39.1,0.00,North,357,0.0,0.0,86,0.00,,---,0.00,VWS V13.01,2013-09-27 10:41:00,
2013-09-27 06:46:00,43.0,39.1,0.00,North,357,0.0,0.0,86,0.00,,---,0.00,VWS V13.01,2013-09-27 10:46:00,
2013-09-27 06:51:00,42.8,38.6,0.00,North,357,0.0,0.0,85,0.00,,---,0.00,VWS V13.01,2013-09-27 10:51:00,
2013-09-27 06:56:00,43.0,38.8,0.00,North,357,0.0,0.0,85,0.00,,---,0.00,VWS V13.01,2013-09-27 10:56:00,
2013-09-27 07:01:00,43.0,38.8,0.00,North,357,0.0,0.0,85,0.00,,---,0.00,VWS V13.01,2013-09-27 11:01:00,
2013-09-27 07:06:00,42.8,38.6,0.00,North,357,0.0,0.0,85,0.00,,---,0.00,VWS V13.01,2013-09-27 11:06:00,
2013-09-27 07:11:00,43.0,38.8,0.00,North,357,0.0,0.0,85,0.00,,---,0.00,VWS V13.01,2013-09-27 11:11:00,
2013-09-27 07:16:00,43.0,39.1,0.00,North,357,0.0,0.0,86,0.00,,---,0.00,VWS V13.01,2013-09-27 11:16:00,
2013-09-27 07:21:00,42.8,38.6,0.00,North,357,0.0,0.0,85,0.00,,---,0.00,VWS V13.01,2013-09-27 11:21:00,
2013-09-27 07:26:00,43.0,39.1,0.00,North,357,0.0,0.0,86,0.00,,---,0.00,VWS V13.01,2013-09-27 11:26:00,
2013-09-27 07:31:00,43.3,39.4,0.00,North,357,0.0,0.0,86,0.00,,---,0.00,VWS V13.01,2013-09-27 11:31:00,
2013-09-27 07:36:00,43.5,39.9,0.00,North,357,0.0,0.0,87,0.00,,---,0.00,VWS V13.01,2013-09-27 11:36:00,
2013-09-27 07:41:00,43.9,40.3,0.00,North,357,0.0,0.0,87,0.00,,---,0.00,VWS V13.01,2013-09-27 11:41:00,
2013-09-27 07:46:00,44.1,40.7,0.00,North,357,0.0,0.0,88,0.00,,---,0.00,VWS V13.01,2013-09-27 11:46:00,
2013-09-27 07:52:00,44.6,41.3,0.00,North,357,0.0,0.0,88,0.00,,---,0.00,VWS V13.01,2013-09-27 11:52:00,
2013-09-27 07:57:00,45.0,41.6,0.00,North,357,0.0,0.0,88,0.00,,---,0.00,VWS V13.01,2013-09-27 11:57:00,
2013-09-27 08:02:00,45.1,42.1,0.00,North,357,0.0,0.0,89,0.00,,---,0.00,VWS V13.01,2013-09-27 12:02:00,
2013-09-27 08:07:00,45.5,42.5,0.00,North,357,0.0,0.0,89,0.00,,---,0.00,VWS V13.01,2013-09-27 12:07:00,
2013-09-27 08:12:00,46.0,43.3,0.00,North,357,0.0,0.0,90,0.00,,---,0.00,VWS V13.01,2013-09-27 12:12:00,
2013-09-27 08:17:00,46.4,43.6,0.00,North,357,0.0,0.0,90,0.00,,---,0.00,VWS V13.01,2013-09-27 12:17:00,
2013-09-27 08:22:00,46.8,44.3,0.00,North,357,0.0,0.0,91,0.00,,---,0.00,VWS V13.01,2013-09-27 12:22:00,
2013-09-27 08:27:00,47.3,44.8,0.00,North,357,0.0,0.0,91,0.00,,---,0.00,VWS V13.01,2013-09-27 12:27:00,
2013-09-27 08:32:00,47.7,45.5,0.00,North,357,0.0,0.0,92,0.00,,---,0.00,VWS V13.01,2013-09-27 12:32:00,
2013-09-27 08:37:00,48.2,46.0,0.00,North,357,0.0,0.0,92,0.00,,---,0.00,VWS V13.01,2013-09-27 12:37:00,
2013-09-27 08:42:00,49.3,47.3,0.00,North,357,0.0,0.0,93,0.00,,---,0.00,VWS V13.01,2013-09-27 12:42:00,
2013-09-27 08:47:00,49.6,47.7,0.00,North,357,0.0,0.0,93,0.00,,---,0.00,VWS V13.01,2013-09-27 12:47:00,
2013-09-27 08:52:00,50.2,48.2,0.00,North,357,0.0,0.0,93,0.00,,---,0.00,VWS V13.01,2013-09-27 12:52:00,
2013-09-27 08:57:00,50.9,49.0,0.00,North,357,0.0,0.0,93,0.00,,---,0.00,VWS V13.01,2013-09-27 12:57:00,
2013-09-27 09:02:00,52.0,50.3,0.00,North,357,0.0,0.0,94,0.00,,---,0.00,VWS V13.01,2013-09-27 13:02:00,
2013-09-27 09:07:00,52.9,51.2,0.00,North,357,0.0,0.0,94,0.00,,---,0.00,VWS V13.01,2013-09-27 13:07:00,
2013-09-27 09:12:00,53.8,52.1,0.00,North,357,0.0,0.0,94,0.00,,---,0.00,VWS V13.01,2013-09-27 13:12:00,
2013-09-27 09:17:00,54.5,52.8,0.00,North,357,0.0,0.0,94,0.00,,---,0.00,VWS V13.01,2013-09-27 13:17:00,
2013-09-27 09:22:00,55.2,53.5,0.00,North,357,0.0,0.0,94,0.00,,---,0.00,VWS V13.01,2013-09-27 13:22:00,
2013-09-27 09:27:00,55.8,53.8,0.00,North,357,0.0,0.0,93,0.00,,---,0.00,VWS V13.01,2013-09-27 13:27:00,
2013-09-27 09:32:00,56.5,54.5,0.00,North,357,0.0,0.0,93,0.00,,---,0.00,VWS V13.01,2013-09-27 13:32:00,
2013-09-27 09:38:00,57.0,54.7,0.00,North,357,0.0,0.0,92,0.00,,---,0.00,VWS V13.01,2013-09-27 13:38:00,
2013-09-27 09:43:00,57.6,55.0,0.00,North,357,0.0,0.0,91,0.00,,---,0.00,VWS V13.01,2013-09-27 13:43:00,
2013-09-27 09:48:00,57.9,55.0,0.00,North,357,0.0,0.0,90,0.00,,---,0.00,VWS V13.01,2013-09-27 13:48:00,
2013-09-27 09:53:00,58.1,54.6,0.00,North,357,0.0,0.0,88,0.00,,---,0.00,VWS V13.01,2013-09-27 13:53:00,
2013-09-27 09:58:00,58.3,54.4,0.00,North,357,0.0,0.0,87,0.00,,---,0.00,VWS V13.01,2013-09-27 13:58:00,
2013-09-27 10:03:00,58.5,54.0,0.00,North,357,0.0,0.0,85,0.00,,---,0.00,VWS V13.01,2013-09-27 14:03:00,
2013-09-27 10:08:00,58.5,53.7,0.00,North,357,0.0,0.0,84,0.00,,---,0.00,VWS V13.01,2013-09-27 14:08:00,
2013-09-27 10:13:00,58.5,53.3,0.00,North,357,0.0,0.0,83,0.00,,---,0.00,VWS V13.01,2013-09-27 14:13:00,
2013-09-27 10:18:00,58.5,53.0,0.00,North,357,0.0,0.0,82,0.00,,---,0.00,VWS V13.01,2013-09-27 14:18:00,
2013-09-27 10:23:00,58.5,52.7,0.00,North,357,0.0,0.0,81,0.00,,---,0.00,VWS V13.01,2013-09-27 14:23:00,
2013-09-27 10:28:00,58.8,53.0,0.00,North,357,0.0,0.0,81,0.00,,---,0.00,VWS V13.01,2013-09-27 14:28:00,
2013-09-27 10:33:00,59.2,53.0,0.00,North,357,0.0,0.0,80,0.00,,---,0.00,VWS V13.01,2013-09-27 14:33:00,
2013-09-27 10:38:00,59.4,52.5,0.00,North,357,0.0,0.0,78,0.00,,---,0.00,VWS V13.01,2013-09-27 14:38:00,
2013-09-27 10:43:00,59.5,52.3,0.00,North,357,0.0,0.0,77,0.00,,---,0.00,VWS V13.01,2013-09-27 14:43:00,
2013-09-27 10:48:00,59.7,52.2,0.00,North,357,0.0,0.0,76,0.00,,---,0.00,VWS V13.01,2013-09-27 14:48:00,
2013-09-27 10:53:00,59.7,51.4,0.00,North,357,0.0,0.0,74,0.00,,---,0.00,VWS V13.01,2013-09-27 14:53:00,
2013-09-27 10:58:00,59.9,51.6,0.00,North,357,0.0,0.0,74,0.00,,---,0.00,VWS V13.01,2013-09-27 14:58:00,
2013-09-27 11:03:00,60.1,51.0,0.00,North,357,0.0,0.0,72,0.00,,---,0.00,VWS V13.01,2013-09-27 15:03:00,
2013-09-27 11:08:00,60.3,51.2,0.00,North,357,0.0,0.0,72,0.00,,---,0.00,VWS V13.01,2013-09-27 15:08:00,
2013-09-27 11:13:00,60.4,51.0,0.00,North,357,0.0,0.0,71,0.00,,---,0.00,VWS V13.01,2013-09-27 15:13:00,
2013-09-27 11:19:00,60.6,50.8,0.00,North,357,0.0,0.0,70,0.00,,---,0.00,VWS V13.01,2013-09-27 15:19:00,
2013-09-27 11:24:00,60.6,50.4,0.00,North,357,0.0,0.0,69,0.00,,---,0.00,VWS V13.01,2013-09-27 15:24:00,
2013-09-27 11:29:00,61.2,50.5,0.00,North,357,0.0,0.0,68,0.00,,---,0.00,VWS V13.01,2013-09-27 15:29:00,
2013-09-27 11:34:00,60.8,49.8,0.00,North,357,0.0,0.0,67,0.00,,---,0.00,VWS V13.01,2013-09-27 15:34:00,
2013-09-27 11:39:00,60.6,49.6,0.00,North,357,0.0,0.0,67,0.00,,---,0.00,VWS V13.01,2013-09-27 15:39:00,
2013-09-27 11:44:00,61.2,49.7,0.00,North,357,0.0,0.0,66,0.00,,---,0.00,VWS V13.01,2013-09-27 15:44:00,
2013-09-27 11:49:00,62.1,50.6,0.00,North,357,0.0,0.0,66,0.00,,---,0.00,VWS V13.01,2013-09-27 15:49:00,
2013-09-27 11:54:00,62.6,50.7,0.00,North,357,0.0,0.0,65,0.00,,---,0.00,VWS V13.01,2013-09-27 15:54:00,
2013-09-27 11:59:00,63.0,50.6,0.00,North,357,0.0,0.0,64,0.00,,---,0.00,VWS V13.01,2013-09-27 15:59:00,
2013-09-27 12:04:00,62.6,49.4,0.00,North,357,0.0,0.0,62,0.00,,---,0.00,VWS V13.01,2013-09-27 16:04:00,
2013-09-27 12:09:00,62.1,48.9,0.00,North,357,0.0,0.0,62,0.00,,---,0.00,VWS V13.01,2013-09-27 16:09:00,
2013-09-27 12:14:00,61.9,48.7,0.00,North,357,0.0,0.0,62,0.00,,---,0.00,VWS V13.01,2013-09-27 16:14:00,
2013-09-27 12:19:00,61.7,48.6,0.00,North,357,0.0,0.0,62,0.00,,---,0.00,VWS V13.01,2013-09-27 16:19:00,
2013-09-27 12:24:00,61.5,48.4,0.00,North,357,0.0,0.0,62,0.00,,---,0.00,VWS V13.01,2013-09-27 16:24:00,
2013-09-27 12:29:00,61.5,48.4,0.00,North,357,0.0,0.0,62,0.00,,---,0.00,VWS V13.01,2013-09-27 16:29:00,
2013-09-27 12:34:00,62.1,49.3,0.00,North,357,0.0,0.0,63,0.00,,---,0.00,VWS V13.01,2013-09-27 16:34:00,
2013-09-27 12:39:00,62.4,48.8,0.00,North,357,0.0,0.0,61,0.00,,---,0.00,VWS V13.01,2013-09-27 16:39:00,
2013-09-27 12:44:00,62.8,49.2,0.00,North,357,0.0,0.0,61,0.00,,---,0.00,VWS V13.01,2013-09-27 16:44:00,
2013-09-27 12:49:00,62.8,48.7,0.00,North,357,0.0,0.0,60,0.00,,---,0.00,VWS V13.01,2013-09-27 16:49:00,
2013-09-27 12:54:00,63.0,48.4,0.00,North,357,0.0,0.0,59,0.00,,---,0.00,VWS V13.01,2013-09-27 16:54:00,
2013-09-27 12:59:00,63.1,48.6,0.00,North,357,0.0,0.0,59,0.00,,---,0.00,VWS V13.01,2013-09-27 16:59:00,
2013-09-27 13:05:00,63.1,49.0,0.00,North,357,0.0,0.0,60,0.00,,---,0.00,VWS V13.01,2013-09-27 17:05:00,
2013-09-27 13:10:00,63.1,48.6,0.00,North,357,0.0,0.0,59,0.00,,---,0.00,VWS V13.01,2013-09-27 17:10:00,
2013-09-27 13:15:00,63.3,48.3,0.00,North,357,0.0,0.0,58,0.00,,---,0.00,VWS V13.01,2013-09-27 17:15:00,
2013-09-27 13:20:00,63.7,48.6,0.00,North,357,0.0,0.0,58,0.00,,---,0.00,VWS V13.01,2013-09-27 17:20:00,
2013-09-27 13:25:00,63.7,48.2,0.00,North,357,0.0,0.0,57,0.00,,---,0.00,VWS V13.01,2013-09-27 17:25:00,
2013-09-27 13:30:00,63.9,48.3,0.00,North,357,0.0,0.0,57,0.00,,---,0.00,VWS V13.01,2013-09-27 17:30:00,
2013-09-27 13:32:00,63.9,48.8,0.00,North,357,0.0,0.0,58,0.00,,---,0.00,VWS V13.01,2013-09-27 17:32:00,
2013-09-27 13:37:00,64.2,49.2,0.00,North,357,0.0,0.0,58,0.00,,---,0.00,VWS V13.01,2013-09-27 17:37:00,
2013-09-27 13:42:00,64.2,48.7,0.00,North,357,0.0,0.0,57,0.00,,---,0.00,VWS V13.01,2013-09-27 17:42:00,
2013-09-27 13:47:00,64.4,49.3,0.00,North,357,0.0,0.0,58,0.00,,---,0.00,VWS V13.01,2013-09-27 17:47:00,
2013-09-27 13:52:00,64.2,49.2,0.00,North,357,0.0,0.0,58,0.00,,---,0.00,VWS V13.01,2013-09-27 17:52:00,
2013-09-27 13:57:00,64.2,48.7,0.00,North,357,0.0,0.0,57,0.00,,---,0.00,VWS V13.01,2013-09-27 17:57:00,
2013-09-27 14:02:00,64.2,48.7,0.00,North,357,0.0,0.0,57,0.00,,---,0.00,VWS V13.01,2013-09-27 18:02:00,
2013-09-27 14:07:00,64.4,48.4,0.00,North,357,0.0,0.0,56,0.00,,---,0.00,VWS V13.01,2013-09-27 18:07:00,
2013-09-27 14:12:00,64.6,48.5,0.00,North,357,0.0,0.0,56,0.00,,---,0.00,VWS V13.01,2013-09-27 18:12:00,
2013-09-27 14:17:00,64.8,48.7,0.00,North,357,0.0,0.0,56,0.00,,---,0.00,VWS V13.01,2013-09-27 18:17:00,
2013-09-27 14:22:00,64.8,47.8,0.00,North,357,0.0,0.0,54,0.00,,---,0.00,VWS V13.01,2013-09-27 18:22:00,
2013-09-27 14:27:00,64.8,48.2,0.00,North,357,0.0,0.0,55,0.00,,---,0.00,VWS V13.01,2013-09-27 18:27:00,
2013-09-27 14:32:00,64.8,47.8,0.00,North,357,0.0,0.0,54,0.00,,---,0.00,VWS V13.01,2013-09-27 18:32:00,
2013-09-27 14:37:00,64.8,47.8,0.00,North,357,0.0,0.0,54,0.00,,---,0.00,VWS V13.01,2013-09-27 18:37:00,
2013-09-27 14:42:00,64.9,48.4,0.00,North,357,0.0,0.0,55,0.00,,---,0.00,VWS V13.01,2013-09-27 18:42:00,
2013-09-27 14:47:00,65.1,48.1,0.00,North,357,0.0,0.0,54,0.00,,---,0.00,VWS V13.01,2013-09-27 18:47:00,
2013-09-27 14:52:00,65.1,48.1,0.00,North,357,0.0,0.0,54,0.00,,---,0.00,VWS V13.01,2013-09-27 18:52:00,
2013-09-27 14:57:00,65.3,48.2,0.00,North,357,0.0,0.0,54,0.00,,---,0.00,VWS V13.01,2013-09-27 18:57:00,
2013-09-27 15:02:00,65.1,47.6,0.00,North,357,0.0,0.0,53,0.00,,---,0.00,VWS V13.01,2013-09-27 19:02:00,
2013-09-27 15:07:00,65.3,48.2,0.00,North,357,0.0,0.0,54,0.00,,---,0.00,VWS V13.01,2013-09-27 19:07:00,
2013-09-27 15:12:00,65.3,48.2,0.00,North,357,0.0,0.0,54,0.00,,---,0.00,VWS V13.01,2013-09-27 19:12:00,
2013-09-27 15:18:00,65.3,48.2,0.00,North,357,0.0,0.0,54,0.00,,---,0.00,VWS V13.01,2013-09-27 19:18:00,
2013-09-27 15:23:00,65.5,48.4,0.00,North,357,0.0,0.0,54,0.00,,---,0.00,VWS V13.01,2013-09-27 19:23:00,
2013-09-27 15:28:00,65.3,48.2,0.00,North,357,0.0,0.0,54,0.00,,---,0.00,VWS V13.01,2013-09-27 19:28:00,
2013-09-27 15:33:00,65.5,48.9,0.00,North,357,0.0,0.0,55,0.00,,---,0.00,VWS V13.01,2013-09-27 19:33:00,
2013-09-27 15:38:00,65.5,48.9,0.00,North,357,0.0,0.0,55,0.00,,---,0.00,VWS V13.01,2013-09-27 19:38:00,
2013-09-27 15:43:00,65.5,48.9,0.00,North,357,0.0,0.0,55,0.00,,---,0.00,VWS V13.01,2013-09-27 19:43:00,
2013-09-27 15:48:00,65.5,48.9,0.00,North,357,0.0,0.0,55,0.00,,---,0.00,VWS V13.01,2013-09-27 19:48:00,
2013-09-27 15:53:00,65.5,48.9,0.00,North,357,0.0,0.0,55,0.00,,---,0.00,VWS V13.01,2013-09-27 19:53:00,
2013-09-27 15:58:00,65.5,48.9,0.00,North,357,0.0,0.0,55,0.00,,---,0.00,VWS V13.01,2013-09-27 19:58:00,
2013-09-27 16:03:00,65.5,48.4,0.00,North,357,0.0,0.0,54,0.00,,---,0.00,VWS V13.01,2013-09-27 20:03:00,
2013-09-27 16:08:00,65.5,48.4,0.00,North,357,0.0,0.0,54,0.00,,---,0.00,VWS V13.01,2013-09-27 20:08:00,
2013-09-27 16:13:00,65.3,48.7,0.00,North,357,0.0,0.0,55,0.00,,---,0.00,VWS V13.01,2013-09-27 20:13:00,
2013-09-27 16:18:00,65.3,48.7,0.00,North,357,0.0,0.0,55,0.00,,---,0.00,VWS V13.01,2013-09-27 20:18:00,
2013-09-27 16:23:00,65.1,48.1,0.00,North,357,0.0,0.0,54,0.00,,---,0.00,VWS V13.01,2013-09-27 20:23:00,
2013-09-27 16:28:00,65.1,48.1,0.00,North,357,0.0,0.0,54,0.00,,---,0.00,VWS V13.01,2013-09-27 20:28:00,
2013-09-27 16:33:00,65.1,48.6,0.00,North,357,0.0,0.0,55,0.00,,---,0.00,VWS V13.01,2013-09-27 20:33:00,
2013-09-27 16:38:00,65.1,48.6,0.00,North,357,0.0,0.0,55,0.00,,---,0.00,VWS V13.01,2013-09-27 20:38:00,
2013-09-27 16:43:00,64.9,48.4,0.00,North,357,0.0,0.0,55,0.00,,---,0.00,VWS V13.01,2013-09-27 20:43:00,
2013-09-27 16:48:00,64.8,48.2,0.00,North,357,0.0,0.0,55,0.00,,---,0.00,VWS V13.01,2013-09-27 20:48:00,
2013-09-27 16:53:00,64.8,48.2,0.00,North,357,0.0,0.0,55,0.00,,---,0.00,VWS V13.01,2013-09-27 20:53:00,
2013-09-27 16:58:00,64.6,48.1,0.00,North,357,0.0,0.0,55,0.00,,---,0.00,VWS V13.01,2013-09-27 20:58:00,
2013-09-27 17:03:00,64.6,48.5,0.00,North,357,0.0,0.0,56,0.00,,---,0.00,VWS V13.01,2013-09-27 21:03:00,
2013-09-27 17:08:00,64.4,47.9,0.00,North,357,0.0,0.0,55,0.00,,---,0.00,VWS V13.01,2013-09-27 21:08:00,
2013-09-27 17:14:00,64.4,48.4,0.00,North,357,0.0,0.0,56,0.00,,---,0.00,VWS V13.01,2013-09-27 21:14:00,
2013-09-27 17:19:00,64.2,48.7,0.00,North,357,0.0,0.0,57,0.00,,---,0.00,VWS V13.01,2013-09-27 21:19:00,
2013-09-27 17:24:00,64.2,49.2,0.00,North,357,0.0,0.0,58,0.00,,---,0.00,VWS V13.01,2013-09-27 21:24:00,
2013-09-27 17:29:00,63.9,48.8,0.00,North,357,0.0,0.0,58,0.00,,---,0.00,VWS V13.01,2013-09-27 21:29:00,
2013-09-27 17:34:00,63.7,49.1,0.00,North,357,0.0,0.0,59,0.00,,---,0.00,VWS V13.01,2013-09-27 21:34:00,
2013-09-27 17:39:00,63.5,49.4,0.00,North,357,0.0,0.0,60,0.00,,---,0.00,VWS V13.01,2013-09-27 21:39:00,
2013-09-27 17:44:00,63.3,49.7,0.00,North,357,0.0,0.0,61,0.00,,---,0.00,VWS V13.01,2013-09-27 21:44:00,
2013-09-27 17:49:00,63.1,49.5,0.00,North,357,0.0,0.0,61,0.00,,---,0.00,VWS V13.01,2013-09-27 21:49:00,
2013-09-27 17:54:00,63.0,49.3,0.00,North,357,0.0,0.0,61,0.00,,---,0.00,VWS V13.01,2013-09-27 21:54:00,
2013-09-27 17:59:00,62.6,49.4,0.00,North,357,0.0,0.0,62,0.00,,---,0.00,VWS V13.01,2013-09-27 21:59:00,
2013-09-27 18:04:00,62.4,49.7,0.00,North,357,0.0,0.0,63,0.00,,---,0.00,VWS V13.01,2013-09-27 22:04:00,
2013-09-27 18:09:00,62.1,49.3,0.00,North,357,0.0,0.0,63,0.00,,---,0.00,VWS V13.01,2013-09-27 22:09:00,
2013-09-27 18:14:00,61.9,49.2,0.00,North,357,0.0,0.0,63,0.00,,---,0.00,VWS V13.01,2013-09-27 22:14:00,
2013-09-27 18:19:00,61.7,49.4,0.00,North,357,0.0,0.0,64,0.00,,---,0.00,VWS V13.01,2013-09-27 22:19:00,
2013-09-27 18:24:00,61.3,49.1,0.00,North,357,0.0,0.0,64,0.00,,---,0.00,VWS V13.01,2013-09-27 22:24:00,
2013-09-27 18:29:00,61.2,49.3,0.00,North,357,0.0,0.0,65,0.00,,---,0.00,VWS V13.01,2013-09-27 22:29:00,
2013-09-27 18:34:00,60.8,49.0,0.00,North,357,0.0,0.0,65,0.00,,---,0.00,VWS V13.01,2013-09-27 22:34:00,
2013-09-27 18:39:00,60.6,49.2,0.00,North,357,0.0,0.0,66,0.00,,---,0.00,VWS V13.01,2013-09-27 22:39:00,
2013-09-27 18:44:00,60.3,48.9,0.00,North,357,0.0,0.0,66,0.00,,---,0.00,VWS V13.01,2013-09-27 22:44:00,
2013-09-27 18:49:00,59.9,48.9,0.00,North,357,0.0,0.0,67,0.00,,---,0.00,VWS V13.01,2013-09-27 22:49:00,
2013-09-27 18:54:00,59.7,48.8,0.00,North,357,0.0,0.0,67,0.00,,---,0.00,VWS V13.01,2013-09-27 22:54:00,
2013-09-27 19:00:00,59.4,48.8,0.00,North,357,0.0,0.0,68,0.00,,---,0.00,VWS V13.01,2013-09-27 23:00:00,
2013-09-27 19:05:00,59.0,48.9,0.00,North,357,0.0,0.0,69,0.00,,---,0.00,VWS V13.01,2013-09-27 23:05:00,
2013-09-27 19:10:00,58.6,48.9,0.00,North,357,0.0,0.0,70,0.00,,---,0.00,VWS V13.01,2013-09-27 23:10:00,
2013-09-27 19:15:00,58.3,48.9,0.00,North,357,0.0,0.0,71,0.00,,---,0.00,VWS V13.01,2013-09-27 23:15:00,
2013-09-27 19:20:00,58.1,48.8,0.00,North,357,0.0,0.0,71,0.00,,---,0.00,VWS V13.01,2013-09-27 23:20:00,
2013-09-27 19:25:00,57.7,48.8,0.00,North,357,0.0,0.0,72,0.00,,---,0.00,VWS V13.01,2013-09-27 23:25:00,
2013-09-27 19:30:00,57.6,48.6,0.00,North,357,0.0,0.0,72,0.00,,---,0.00,VWS V13.01,2013-09-27 23:30:00,
2013-09-27 19:35:00,57.2,48.3,0.00,North,357,0.0,0.0,72,0.00,,---,0.00,VWS V13.01,2013-09-27 23:35:00,
2013-09-27 19:40:00,57.0,48.5,0.00,North,357,0.0,0.0,73,0.00,,---,0.00,VWS V13.01,2013-09-27 23:40:00,
2013-09-27 19:45:00,56.8,48.3,0.00,North,357,0.0,0.0,73,0.00,,---,0.00,VWS V13.01,2013-09-27 23:45:00,
2013-09-27 19:50:00,56.5,47.9,0.00,North,357,0.0,0.0,73,0.00,,---,0.00,VWS V13.01,2013-09-27 23:50:00,
2013-09-27 19:55:00,56.3,48.1,0.00,North,357,0.0,0.0,74,0.00,,---,0.00,VWS V13.01,2013-09-27 23:55:00,
2013-09-27 20:00:00,56.1,48.0,0.00,North,357,0.0,0.0,74,0.00,,---,0.00,VWS V13.01,2013-09-28 00:00:00,
2013-09-27 20:05:00,55.6,47.1,0.00,North,357,0.0,0.0,73,0.00,,---,0.00,VWS V13.01,2013-09-28 00:05:00,
2013-09-27 20:10:00,55.2,47.1,0.00,North,357,0.0,0.0,74,0.00,,---,0.00,VWS V13.01,2013-09-28 00:10:00,
2013-09-27 20:15:00,55.0,46.9,0.00,North,357,0.0,0.0,74,0.00,,---,0.00,VWS V13.01,2013-09-28 00:15:00,
2013-09-27 20:20:00,54.5,46.4,0.00,North,357,0.0,0.0,74,0.00,,---,0.00,VWS V13.01,2013-09-28 00:20:00,
2013-09-27 20:25:00,54.1,46.0,0.00,North,357,0.0,0.0,74,0.00,,---,0.00,VWS V13.01,2013-09-28 00:25:00,
2013-09-27 20:31:00,53.8,46.0,0.00,North,357,0.0,0.0,75,0.00,,---,0.00,VWS V13.01,2013-09-28 00:31:00,
2013-09-27 20:36:00,53.4,45.7,0.00,North,357,0.0,0.0,75,0.00,,---,0.00,VWS V13.01,2013-09-28 00:36:00,
2013-09-27 20:41:00,53.1,45.4,0.00,North,357,0.0,0.0,75,0.00,,---,0.00,VWS V13.01,2013-09-28 00:41:00,
2013-09-27 20:46:00,52.9,45.2,0.00,North,357,0.0,0.0,75,0.00,,---,0.00,VWS V13.01,2013-09-28 00:46:00,
2013-09-27 20:51:00,52.5,44.8,0.00,North,357,0.0,0.0,75,0.00,,---,0.00,VWS V13.01,2013-09-28 00:51:00,
2013-09-27 20:56:00,52.2,44.8,0.00,North,357,0.0,0.0,76,0.00,,---,0.00,VWS V13.01,2013-09-28 00:56:00,
2013-09-27 21:01:00,52.0,44.7,0.00,North,357,0.0,0.0,76,0.00,,---,0.00,VWS V13.01,2013-09-28 01:01:00,
2013-09-27 21:06:00,51.8,44.8,0.00,North,357,0.0,0.0,77,0.00,,---,0.00,VWS V13.01,2013-09-28 01:06:00,
2013-09-27 21:11:00,51.6,44.7,0.00,North,357,0.0,0.0,77,0.00,,---,0.00,VWS V13.01,2013-09-28 01:11:00,
2013-09-27 21:16:00,51.3,44.6,0.00,North,357,0.0,0.0,78,0.00,,---,0.00,VWS V13.01,2013-09-28 01:16:00,
2013-09-27 21:21:00,51.1,44.5,0.00,North,357,0.0,0.0,78,0.00,,---,0.00,VWS V13.01,2013-09-28 01:21:00,
2013-09-27 21:26:00,50.9,44.6,0.00,North,357,0.0,0.0,79,0.00,,---,0.00,VWS V13.01,2013-09-28 01:26:00,
2013-09-27 21:31:00,50.7,44.5,0.00,North,357,0.0,0.0,79,0.00,,---,0.00,VWS V13.01,2013-09-28 01:31:00,
2013-09-27 21:36:00,50.7,44.5,0.00,North,357,0.0,0.0,79,0.00,,---,0.00,VWS V13.01,2013-09-28 01:36:00,
2013-09-27 21:41:00,50.4,44.1,0.00,North,357,0.0,0.0,79,0.00,,---,0.00,VWS V13.01,2013-09-28 01:41:00,
2013-09-27 21:46:00,50.2,43.9,0.00,North,357,0.0,0.0,79,0.00,,---,0.00,VWS V13.01,2013-09-28 01:46:00,
2013-09-27 21:51:00,50.0,43.8,0.00,North,357,0.0,0.0,79,0.00,,---,0.00,VWS V13.01,2013-09-28 01:51:00,
2013-09-27 21:56:00,49.8,43.9,0.00,North,357,0.0,0.0,80,0.00,,---,0.00,VWS V13.01,2013-09-28 01:56:00,
2013-09-27 22:02:00,49.6,43.7,0.00,North,357,0.0,0.0,80,0.00,,---,0.00,VWS V13.01,2013-09-28 02:02:00,
2013-09-27 22:07:00,49.5,43.6,0.00,North,357,0.0,0.0,80,0.00,,---,0.00,VWS V13.01,2013-09-28 02:07:00,
2013-09-27 22:12:00,49.1,43.2,0.00,North,357,0.0,0.0,80,0.00,,---,0.00,VWS V13.01,2013-09-28 02:12:00,
2013-09-27 22:17:00,48.9,43.0,0.00,North,357,0.0,0.0,80,0.00,,---,0.00,VWS V13.01,2013-09-28 02:17:00,
2013-09-27 22:22:00,48.7,42.9,0.00,North,357,0.0,0.0,80,0.00,,---,0.00,VWS V13.01,2013-09-28 02:22:00,
2013-09-27 22:27:00,48.6,42.7,0.00,North,357,0.0,0.0,80,0.00,,---,0.00,VWS V13.01,2013-09-28 02:27:00,
2013-09-27 22:32:00,48.6,43.0,0.00,North,357,0.0,0.0,81,0.00,,---,0.00,VWS V13.01,2013-09-28 02:32:00,
2013-09-27 22:37:00,48.6,43.0,0.00,North,357,0.0,0.0,81,0.00,,---,0.00,VWS V13.01,2013-09-28 02:37:00,
2013-09-27 22:42:00,48.6,43.0,0.00,North,357,0.0,0.0,81,0.00,,---,0.00,VWS V13.01,2013-09-28 02:42:00,
2013-09-27 22:47:00,48.4,43.2,0.00,North,357,0.0,0.0,82,0.00,,---,0.00,VWS V13.01,2013-09-28 02:47:00,
2013-09-27 22:52:00,48.2,43.0,0.00,North,357,0.0,0.0,82,0.00,,---,0.00,VWS V13.01,2013-09-28 02:52:00,
2013-09-27 22:57:00,48.0,42.8,0.00,North,357,0.0,0.0,82,0.00,,---,0.00,VWS V13.01,2013-09-28 02:57:00,
2013-09-27 23:02:00,47.8,42.6,0.00,North,357,0.0,0.0,82,0.00,,---,0.00,VWS V13.01,2013-09-28 03:02:00,
2013-09-27 23:07:00,47.8,42.6,0.00,North,357,0.0,0.0,82,0.00,,---,0.00,VWS V13.01,2013-09-28 03:07:00,
2013-09-27 23:12:00,47.7,42.4,0.00,North,357,0.0,0.0,82,0.00,,---,0.00,VWS V13.01,2013-09-28 03:12:00,
2013-09-27 23:18:00,47.5,42.3,0.00,North,357,0.0,0.0,82,0.00,,---,0.00,VWS V13.01,2013-09-28 03:18:00,
2013-09-27 23:23:00,47.5,42.3,0.00,North,357,0.0,0.0,82,0.00,,---,0.00,VWS V13.01,2013-09-28 03:23:00,
2013-09-27 23:28:00,47.3,42.1,0.00,North,357,0.0,0.0,82,0.00,,---,0.00,VWS V13.01,2013-09-28 03:28:00,
2013-09-27 23:33:00,47.3,42.1,0.00,North,357,0.0,0.0,82,0.00,,---,0.00,VWS V13.01,2013-09-28 03:33:00,
2013-09-27 23:38:00,46.9,41.7,0.00,North,357,0.0,0.0,82,0.00,,---,0.00,VWS V13.01,2013-09-28 03:38:00,
2013-09-27 23:43:00,46.8,41.6,0.00,North,357,0.0,0.0,82,0.00,,---,0.00,VWS V13.01,2013-09-28 03:43:00,
2013-09-27 23:48:00,46.9,42.0,0.00,North,357,0.0,0.0,83,0.00,,---,0.00,VWS V13.01,2013-09-28 03:48:00,
2013-09-27 23:53:00,46.9,42.0,0.00,North,357,0.0,0.0,83,0.00,,---,0.00,VWS V13.01,2013-09-28 03:53:00,
2013-09-27 23:58:00,46.8,41.9,0.00,North,357,0.0,0.0,83,0.00,,---,0.00,VWS V13.01,2013-09-28 03:58:00,